Dewpoint
-3 -1 1 1 0 0 0 1 9 9 7 6 7 4 9 8 9 13 13 11 8 8 12 13 14 14 14 15 15 16 16 16 16 16 15 15 14 13 13 14 13 13 13 13
-2 -1 -3 -3 -3 -2 -1 -1 1 4 6 7 5 -0 6 8 6 0 12 11 10 10 11 15 15 15 15 15 16 16 16 16 16 16 16 15 15 14 14 14 14 14 14 13
-1 -3 -5 -5 -5 -5 -4 -2 -1 0 -1 1 2 2 7 8 6 5 10 10 10 11 14 14 10 8 15 16 16 16 15 16 16 16 16 15 15 14 13 13 12 11 12 12
-1 -3 -4 -4 -5 -7 -6 -6 -6 -2 -1 1 -2 2 9 9 6 6 4 1 5 12 15 14 9 12 16 17 16 15 16 15 16 16 15 14 13 14 12 11 11 12 11 12
0 -1 -2 -2 -5 -9 -7 -9 -7 -1 -0 0 -0 1 9 8 8 8 6 6 3 8 14 16 17 16 17 16 16 17 16 16 15 14 13 13 13 11 13 12 13 13 12 11
-1 -4 -5 -6 -8 -9 -9 -9 -5 -1 -1 1 -1 2 8 8 8 8 7 6 5 13 16 16 16 16 16 16 16 15 15 14 13 13 14 11 12 12 12 12 13 13 12 12
0 -2 -4 -8 -7 -6 -7 -5 1 4 4 4 5 6 6 5 5 7 6 7 13 16 16 14 13 16 16 15 14 15 15 13 13 14 13 13 12 12 13 13 13 13 13 13
3 2 -1 -6 -5 -5 -3 -3 2 4 5 5 5 5 9 12 8 5 12 15 16 15 14 10 14 15 14 14 14 13 14 12 13 14 13 13 11 12 13 13 13 13 13 13
3 3 -2 -5 -7 -7 -5 -0 -3 -0 0 1 5 6 10 9 7 8 14 15 15 13 10 14 13 14 14 13 14 14 14 10 13 14 14 12 11 12 13 13 13 12 13 13
-1 3 -1 -3 -7 -7 -7 -5 -1 1 2 4 3 13 14 12 9 9 10 15 14 14 14 12 13 13 14 14 14 14 11 9 12 13 13 12 11 12 11 11 13 13 13 13
-2 1 -1 -1 -1 -1 -2 -2 -4 -1 1 1 6 12 10 11 11 11 9 13 14 13 10 12 13 13 14 14 14 13 12 11 13 13 13 12 11 11 11 11 11 12 13 13
-3 2 4 1 -3 -4 -5 -2 -2 1 1 5 6 12 10 10 11 10 10 9 14 13 13 13 13 13 13 12 13 14 13 14 12 13 12 12 11 11 12 11 11 11 12 13
3 1 3 2 -0 -2 -3 -3 -1 1 5 2 7 13 10 11 11 6 4 9 11 13 12 13 13 13 13 14 14 13 11 14 14 12 13 13 13 13 13 13 12 12 11 12
1 5 2 1 3 2 2 0 -3 0 4 1 2 12 12 12 12 11 7 11 12 14 13 13 13 13 13 14 13 13 12 15 14 12 13 12 13 13 14 14 13 12 12 12
2 7 7 5 3 -3 -3 0 -1 1 1 4 3 10 11 13 12 13 13 10 11 14 13 13 13 14 13 12 13 13 13 13 14 13 12 12 12 13 12 13 13 13 13 12
2 7 7 7 5 3 2 1 2 0 -1 -2 7 12 11 10 9 8 14 15 12 15 14 14 13 13 14 14 14 15 15 14 13 13 14 13 11 12 12 11 12 13 13 13
8 6 9 8 7 5 5 4 6 6 4 2 7 9 10 8 9 6 13 15 15 15 15 14 14 15 14 14 14 15 15 15 14 14 13 13 12 11 11 13 13 13 13 12
10 13 8 10 10 12 6 6 5 4 4 10 10 9 8 8 9 9 12 15 15 15 14 14 14 13 13 13 13 13 14 14 14 15 14 13 12 12 12 13 13 13 12 12
9 10 11 11 10 8 6 6 5 6 8 9 8 9 10 9 13 16 12 14 14 14 14 13 13 13 13 13 9 7 7 8 14 14 14 13 12 12 12 13 13 13 12 11
5 8 10 10 12 11 6 5 3 4 10 9 9 10 9 11 16 15 14 14 14 14 13 13 13 11 7 8 9 11 14 12 11 14 14 13 12 12 12 12 13 12 12 11
5 9 10 10 10 8 7 5 4 10 13 12 10 9 11 13 14 14 13 13 13 13 12 10 8 10 10 10 10 13 12 13 13 13 13 14 12 12 12 12 12 12 12 12
8 7 7 8 9 9 12 7 9 14 15 14 13 14 14 14 13 13 13 12 12 11 9 10 10 10 10 11 12 12 13 13 13 14 14 13 13 13 13 12 12 11 11 11
13 14 13 12 13 13 12 13 12 14 14 15 14 14 13 13 13 12 12 12 11 11 11 11 10 11 11 11 12 12 12 12 12 13 13 13 12 12 11 12 11 10 10 9
11 11 13 11 12 11 9 10 11 12 14 13 13 13 13 12 12 12 11 11 10 10 10 10 10 10 11 11 11 11 11 11 11 12 11 10 10 10 10 9 9 8 8 7
9 11 11 10 12 8 11 12 9 10 13 12 12 12 12 12 11 11 10 10 10 10 10 10 10 10 10 10 10 10 10 10 11 10 10 9 8 8 7 7 6 6 5 4
8 10 11 11 12 10 13 11 9 10 13 12 11 11 11 11 11 10 10 10 10 10 9 9 9 9 9 9 9 9 9 9 9 9 8 7 6 5 4 4 -0 -5 -7 -9
Wind_Speed
10 3 8 11 11 14 12 10 12 15 20 2 10 14 9 19 23 33 44 47 22 46 21 32 27 27 25 23 22 19 18 16 16 15 15 15 15 16 16 16 20 21 21 21
6 10 13 15 16 13 11 8 5 10 18 6 13 7 9 6 11 16 37 39 8 42 35 17 16 19 24 23 17 11 8 13 13 13 13 14 17 19 17 18 22 23 21 22
9 14 14 16 14 12 9 6 7 7 7 6 5 6 3 2 8 8 22 29 10 29 13 27 6 14 22 22 15 5 2 6 8 9 10 12 15 17 17 18 21 23 25 27
10 18 18 10 11 9 8 9 11 8 2 2 2 5 6 3 3 1 7 9 12 22 49 33 18 19 24 19 6 4 5 4 4 5 8 12 13 14 16 18 18 19 19 21
10 10 11 11 9 8 9 9 8 5 6 6 9 3 3 6 3 6 7 9 8 5 24 32 25 19 19 10 10 11 6 2 2 6 9 10 13 14 12 13 16 16 15 17
17 23 12 10 11 11 7 6 7 2 4 4 7 3 4 5 7 4 7 14 11 9 30 26 20 20 16 13 14 9 4 4 6 7 6 8 10 13 13 13 15 12 11 15
14 16 14 7 4 9 6 1 4 4 3 7 4 3 2 4 3 5 13 22 21 32 27 25 24 21 20 17 10 7 3 8 8 8 10 12 14 13 10 8 9 3 7 9
9 8 12 10 10 8 7 9 6 5 3 5 6 4 5 19 41 20 25 33 30 26 25 25 22 20 21 15 9 2 4 8 5 5 10 12 13 12 12 8 6 5 3 1
4 12 12 15 10 11 8 3 10 4 4 4 4 2 8 10 14 4 28 32 28 25 22 23 17 19 14 12 8 3 4 5 6 5 8 12 12 12 13 13 10 8 6 3
10 11 9 15 15 9 8 5 2 2 3 6 4 3 5 8 14 14 9 24 28 29 28 21 17 14 13 11 8 3 5 5 5 4 7 10 9 10 14 16 14 10 10 6
15 7 16 7 3 8 2 3 3 3 4 5 1 5 9 14 9 8 4 7 37 32 24 20 25 16 10 8 5 1 4 4 4 1 5 8 8 8 10 12 14 14 11 10
13 7 6 10 14 6 7 9 9 5 8 2 5 2 8 2 1 4 5 3 12 31 28 27 22 18 11 6 8 9 3 2 3 3 4 5 3 8 8 6 11 10 10 9
1 4 1 8 8 6 6 8 6 6 4 5 4 4 4 6 10 6 14 17 5 32 29 24 22 14 13 11 11 6 1 7 1 3 3 3 3 7 8 7 7 8 6 7
6 2 6 7 8 2 3 7 9 6 4 5 6 9 9 10 10 12 18 8 35 28 33 26 20 19 19 14 4 1 8 7 2 4 1 3 4 3 5 6 6 6 5 7
3 1 4 7 10 10 14 9 9 7 8 7 7 13 16 13 10 9 14 24 2 20 27 26 24 17 13 7 4 1 7 6 5 2 1 4 3 4 2 4 6 4 5 6
2 3 3 6 10 15 13 14 10 12 13 7 12 5 8 22 22 13 23 38 43 25 23 24 18 17 17 12 6 5 7 10 8 5 3 7 6 6 2 6 8 9 8 8
1 3 1 4 7 10 8 5 5 5 4 3 6 9 9 4 2 12 15 16 15 24 21 17 15 13 11 13 14 13 15 12 12 8 7 10 6 5 5 6 7 8 9 9
2 3 2 2 5 8 6 2 7 3 4 10 16 18 13 16 10 7 9 13 14 16 14 15 13 12 12 12 13 14 15 11 11 9 10 13 8 10 10 9 7 8 8 8
5 3 2 2 4 7 8 3 3 5 6 13 15 13 13 13 15 20 13 13 17 16 14 13 10 9 11 12 10 9 10 12 16 10 14 19 16 17 16 13 11 12 9 7
2 3 4 1 1 4 7 5 3 6 2 12 21 12 14 17 5 3 24 22 19 15 11 10 10 10 7 5 4 4 3 4 9 17 15 21 18 18 16 12 12 11 8 4
7 3 6 5 4 5 6 3 6 6 6 16 28 29 24 8 11 25 20 17 13 9 9 8 5 3 2 3 3 1 1 3 6 11 15 21 20 17 13 14 11 8 5 4
7 6 5 2 5 9 19 3 3 10 13 23 26 28 28 33 35 28 21 16 12 10 8 7 4 1 2 3 4 3 3 5 9 17 19 22 18 14 15 11 9 9 6 4
4 2 1 2 2 4 16 11 21 20 27 23 32 32 39 33 29 26 22 17 12 12 11 8 5 5 7 7 6 6 8 10 16 21 22 19 19 20 17 12 11 9 7 8
5 9 3 4 3 6 19 19 16 24 15 28 30 32 32 32 28 24 19 15 13 12 11 9 8 8 10 9 9 10 13 13 16 18 18 20 20 20 18 17 15 14 14 14
1 4 6 5 5 10 16 20 9 16 6 22 25 28 28 26 21 21 16 13 12 11 11 10 10 10 12 13 15 15 16 17 20 22 20 20 20 20 21 21 20 17 17 13
2 2 3 2 10 3 5 5 14 11 27 21 29 27 22 18 22 19 17 14 12 13 13 12 12 15 16 17 20 20 19 19 20 23 22 21 21 21 19 19 23 21 19 16
Wind_Direction
206 192 236 240 233 241 258 274 175 228 242 104 254 265 212 173 178 127 131 146 243 287 228 181 176 174 183 192 196 204 216 226 239 240 248 255 262 263 252 244 239 248 248 247
264 234 236 250 264 266 263 287 260 203 222 164 263 240 182 180 209 167 126 162 232 272 244 147 76 165 188 191 207 202 214 225 240 244 257 269 270 273 269 262 243 250 254 247
209 249 228 236 257 278 280 262 282 267 298 224 222 266 209 315 7 102 152 148 147 276 221 148 223 204 210 194 192 218 252 234 255 262 273 279 278 275 278 273 265 262 257 257
241 245 256 256 233 233 270 269 274 259 266 259 22 272 15 31 272 68 69 55 317 51 155 154 188 174 193 176 169 185 193 199 274 319 309 308 302 300 293 281 279 270 255 249
250 249 259 250 262 247 241 271 291 2 16 28 308 6 302 131 257 208 142 168 229 97 135 131 136 156 151 152 175 173 169 96 359 345 321 320 314 308 305 303 295 290 255 237
262 262 263 228 238 243 261 267 320 17 56 334 259 232 222 198 191 233 140 176 197 149 129 126 133 130 144 153 156 154 138 38 5 354 351 346 344 331 315 307 307 272 254 238
276 273 263 257 323 307 191 28 340 337 351 235 281 0 272 302 359 178 157 188 162 129 129 134 130 133 138 128 124 128 98 37 21 12 15 5 348 351 342 328 349 303 276 253
224 275 239 214 191 212 217 159 164 241 237 255 358 280 53 67 302 233 143 134 136 143 142 138 132 148 150 145 147 165 39 27 44 23 11 5 15 19 16 15 12 4 358 253
270 243 262 223 204 175 259 217 203 218 282 338 232 222 29 11 338 97 134 134 142 141 140 140 142 154 148 127 134 178 27 43 62 57 12 23 32 40 52 51 47 54 62 56
252 278 282 293 206 187 169 219 337 343 251 271 275 35 191 22 294 293 101 143 143 147 149 153 141 146 138 147 168 237 41 54 71 31 21 32 53 63 57 48 60 64 59 54
218 192 274 324 305 173 166 225 258 163 164 193 123 265 188 185 241 294 31 34 153 152 150 152 149 142 145 157 163 89 84 71 110 84 37 32 61 71 58 50 49 46 48 50
205 197 218 255 269 254 180 197 188 147 279 211 145 357 83 156 266 346 344 57 298 155 153 149 145 151 162 158 134 167 217 178 154 129 52 36 56 40 30 28 32 44 47 47
19 211 183 317 330 296 189 236 205 187 138 239 132 180 188 100 85 49 304 316 286 157 149 155 157 169 166 165 179 191 236 207 139 95 35 10 20 8 16 21 31 25 43 55
55 26 165 197 217 157 268 234 240 176 146 226 215 142 205 197 186 175 211 158 241 176 156 165 161 160 164 164 191 283 190 189 205 33 68 82 77 16 350 6 18 15 46 75
98 249 325 303 300 281 275 230 261 275 231 164 202 167 187 188 211 157 139 105 38 174 162 165 153 151 165 164 198 213 149 191 222 328 98 112 95 76 44 20 36 63 76 92
171 243 279 297 307 302 305 298 230 241 234 233 106 87 182 175 183 152 116 130 183 179 162 150 144 142 124 126 135 190 186 214 243 274 270 157 134 142 118 60 79 93 92 105
298 138 261 259 290 298 295 264 11 323 0 197 149 168 195 100 132 155 134 131 152 144 139 155 142 133 142 176 190 183 187 186 206 232 216 194 179 145 116 123 124 118 120 121
19 12 158 274 314 266 244 28 292 268 314 90 105 145 161 163 148 144 116 112 142 131 126 133 140 159 194 205 217 221 226 210 193 190 192 197 189 146 160 171 172 155 138 136
136 113 331 149 245 287 304 123 23 358 312 133 138 154 152 157 92 79 137 118 142 143 144 151 166 196 226 242 253 249 236 233 213 203 197 185 180 175 187 192 180 168 171 156
241 155 141 352 291 274 260 203 204 251 28 159 145 163 158 156 108 101 121 139 147 156 160 186 220 239 247 268 293 297 250 207 200 193 200 190 194 194 193 189 176 178 192 197
246 206 192 196 219 284 306 77 216 156 193 160 160 163 165 154 146 138 141 143 154 176 200 203 213 241 302 335 340 6 104 180 189 202 204 190 191 199 197 182 182 188 212 210
192 199 212 216 205 251 357 315 275 139 114 134 150 153 129 131 140 145 150 155 173 188 174 168 173 152 35 32 55 102 144 153 174 174 181 181 185 176 169 175 175 179 176 177
56 22 335 117 126 1 5 21 22 133 126 121 129 136 142 135 135 145 150 159 176 170 157 146 124 97 88 85 104 132 144 150 161 161 158 155 156 158 153 162 170 154 131 137
330 7 20 345 20 7 353 3 3 22 164 137 135 138 139 134 145 145 150 153 157 152 141 126 111 105 101 103 113 122 129 146 153 144 140 133 131 133 132 127 120 115 115 122
57 57 326 269 34 359 38 38 21 39 349 116 126 130 136 144 141 143 144 153 149 141 131 122 114 108 114 119 117 118 128 137 135 126 120 119 120 120 121 118 114 117 113 108
81 2 12 24 349 79 68 92 78 86 10 119 125 132 151 154 144 148 153 155 151 140 137 132 123 120 116 116 116 120 125 127 125 120 119 117 116 114 113 115 111 104 96 94
Height
1491 1498 1503 1492 1486 1482 1482 1484 1499 1495 1481 1485 1482 1475 1471 1475 1482 1494 1491 1498 1517 1496 1504 1503 1501 1498 1504 1513 1513 1513 1517 1520 1521 1519 1520 1522 1524 1525 1527 1528 1528 1529 1529 1532
1494 1500 1483 1479 1476 1476 1477 1483 1485 1476 1471 1487 1477 1466 1471 1468 1468 1465 1486 1501 1499 1492 1502 1509 1505 1506 1500 1504 1515 1514 1513 1516 1518 1518 1518 1519 1520 1521 1522 1522 1524 1524 1525 1527
1495 1480 1475 1476 1476 1478 1477 1481 1480 1479 1467 1468 1467 1472 1470 1468 1471 1476 1484 1487 1478 1485 1511 1504 1504 1499 1501 1504 1509 1511 1512 1514 1515 1515 1515 1517 1517 1518 1518 1517 1518 1519 1519 1519
1483 1473 1471 1471 1475 1473 1490 1466 1465 1468 1477 1501 1467 1514 1481 1478 1473 1470 1467 1462 1469 1462 1470 1484 1494 1493 1502 1505 1509 1509 1511 1511 1513 1511 1510 1512 1512 1513 1512 1512 1512 1511 1512 1513
1479 1471 1470 1472 1469 1464 1475 1462 1465 1464 1480 1488 1484 1500 1487 1479 1479 1471 1465 1468 1467 1479 1479 1485 1494 1499 1499 1504 1509 1510 1512 1511 1511 1508 1509 1510 1509 1508 1507 1506 1505 1504 1505 1508
1469 1462 1462 1461 1457 1458 1458 1463 1468 1466 1484 1520 1491 1490 1502 1485 1474 1471 1468 1468 1472 1478 1480 1484 1490 1494 1499 1505 1508 1511 1511 1511 1509 1508 1510 1510 1508 1506 1503 1502 1500 1499 1500 1503
1472 1464 1455 1454 1460 1457 1459 1475 1518 1522 1521 1525 1475 1485 1486 1469 1460 1464 1468 1470 1480 1478 1480 1485 1490 1496 1502 1505 1508 1510 1511 1508 1506 1510 1511 1510 1507 1504 1501 1500 1497 1496 1497 1499
1491 1492 1457 1448 1457 1467 1467 1478 1515 1525 1526 1511 1479 1487 1497 1472 1467 1466 1470 1470 1476 1481 1485 1490 1493 1497 1501 1506 1507 1507 1506 1506 1509 1512 1510 1509 1506 1504 1501 1499 1497 1496 1496 1497
1482 1475 1444 1444 1444 1453 1465 1481 1467 1492 1487 1505 1494 1477 1476 1479 1475 1469 1471 1471 1478 1483 1488 1493 1495 1496 1497 1499 1501 1502 1504 1506 1509 1510 1510 1509 1507 1506 1503 1499 1498 1497 1497 1497
1462 1483 1449 1440 1438 1444 1455 1454 1485 1492 1514 1523 1498 1501 1510 1494 1487 1475 1469 1473 1479 1479 1483 1491 1496 1497 1498 1499 1501 1504 1506 1507 1509 1510 1510 1509 1508 1508 1506 1504 1501 1500 1498 1498
1452 1467 1457 1446 1448 1455 1458 1467 1466 1478 1490 1514 1520 1510 1478 1482 1485 1482 1475 1483 1470 1477 1480 1485 1491 1498 1501 1503 1503 1504 1507 1509 1510 1510 1510 1510 1510 1509 1508 1507 1505 1503 1503 1502
1440 1456 1473 1458 1438 1434 1438 1455 1463 1494 1495 1487 1495 1505 1478 1481 1475 1472 1469 1476 1487 1476 1481 1488 1490 1494 1499 1504 1505 1505 1508 1509 1511 1510 1509 1510 1511 1510 1510 1509 1508 1507 1506 1505
1435 1456 1476 1470 1454 1439 1445 1444 1448 1456 1466 1485 1501 1509 1485 1475 1474 1470 1467 1467 1463 1480 1482 1490 1492 1496 1497 1502 1505 1506 1508 1509 1511 1510 1510 1511 1512 1512 1511 1511 1511 1510 1509 1509
1430 1445 1461 1480 1467 1448 1452 1445 1441 1453 1481 1477 1478 1491 1483 1471 1469 1462 1458 1479 1483 1480 1484 1491 1492 1495 1498 1499 1504 1507 1507 1508 1510 1510 1511 1511 1513 1513 1512 1512 1512 1512 1511 1511
1436 1455 1449 1448 1443 1442 1443 1441 1436 1447 1450 1471 1464 1469 1462 1468 1464 1467 1478 1482 1495 1493 1485 1490 1491 1496 1498 1499 1503 1505 1506 1508 1509 1510 1511 1512 1513 1514 1514 1513 1513 1513 1514 1514
1432 1454 1445 1453 1443 1443 1442 1435 1432 1431 1432 1440 1453 1471 1460 1461 1466 1466 1466 1468 1479 1484 1484 1488 1493 1494 1496 1498 1503 1504 1506 1507 1507 1509 1510 1511 1512 1514 1515 1514 1514 1514 1515 1516
1442 1448 1455 1466 1450 1449 1463 1442 1435 1435 1429 1434 1454 1454 1456 1453 1456 1456 1463 1466 1476 1481 1486 1491 1490 1491 1493 1497 1499 1501 1502 1504 1506 1507 1508 1510 1512 1513 1515 1515 1514 1515 1516 1517
1443 1451 1454 1467 1459 1484 1446 1432 1431 1428 1426 1431 1438 1448 1449 1451 1460 1467 1470 1474 1480 1485 1486 1487 1486 1489 1494 1496 1499 1500 1500 1501 1503 1505 1507 1508 1510 1513 1514 1514 1515 1515 1517 1517
1439 1449 1460 1470 1473 1455 1440 1433 1435 1438 1436 1426 1442 1447 1451 1456 1462 1468 1465 1468 1478 1481 1483 1486 1489 1493 1495 1496 1496 1496 1497 1497 1500 1503 1505 1507 1507 1510 1511 1513 1515 1516 1517 1518
1441 1442 1458 1462 1474 1477 1446 1428 1425 1428 1452 1435 1437 1447 1452 1457 1469 1475 1467 1473 1479 1480 1485 1488 1491 1493 1494 1493 1492 1493 1494 1495 1496 1498 1501 1504 1506 1508 1509 1511 1514 1515 1516 1517
1450 1452 1459 1461 1468 1454 1430 1422 1423 1452 1457 1441 1436 1440 1449 1453 1459 1468 1469 1469 1474 1483 1487 1488 1491 1493 1492 1491 1490 1491 1493 1494 1495 1496 1498 1501 1504 1507 1509 1510 1513 1515 1516 1517
1448 1454 1458 1454 1463 1474 1436 1431 1438 1439 1438 1433 1442 1445 1450 1457 1461 1465 1469 1474 1476 1483 1488 1490 1492 1492 1492 1491 1491 1491 1492 1493 1494 1495 1497 1499 1502 1505 1507 1510 1512 1515 1515 1516
1454 1454 1455 1456 1454 1449 1444 1442 1442 1438 1436 1442 1441 1447 1451 1457 1465 1468 1471 1476 1480 1487 1490 1490 1490 1491 1491 1492 1493 1492 1493 1494 1495 1496 1497 1499 1500 1504 1506 1509 1512 1514 1515 1517
1454 1450 1454 1452 1448 1445 1446 1448 1447 1454 1447 1437 1446 1453 1457 1459 1465 1472 1478 1482 1486 1489 1489 1489 1491 1492 1492 1493 1494 1494 1493 1495 1497 1497 1500 1501 1502 1504 1508 1510 1513 1514 1516 1518
1453 1455 1456 1452 1447 1444 1452 1454 1451 1454 1447 1447 1454 1457 1462 1465 1467 1473 1480 1485 1487 1490 1491 1492 1493 1494 1495 1496 1496 1497 1497 1498 1498 1500 1503 1505 1508 1510 1510 1512 1516 1518 1519 1522
1456 1459 1458 1463 1456 1454 1461 1460 1457 1455 1460 1462 1457 1461 1466 1464 1467 1472 1479 1484 1488 1492 1494 1495 1496 1497 1498 1500 1500 1501 1502 1503 1503 1504 1507 1510 1512 1514 1516 1517 1519 1522 1523 1524